Garrison, ND

6:09 AM CDT on September 26, 2017 (GMT -0500)
Garrison

Weather History for KN60 - August, 2013

Change the Weather History Date:

Sunday, August 11, 2013

  Actual Average Record
Temperature  
Mean Temperature 65 °F -  
Max Temperature 74 °F - 97 °F (2000)
Min Temperature 55 °F - 46 °F (1997)
Degree Days  
Heating Degree Days 1    
Cooling Degree Days 0    
Month to date cooling degree days 4  
Year to date cooling degree days 165  
Since 1 June cooling degree days 159  
Growing Degree Days 14 (Base 50)    
Moisture  
Dew Point 54 °F    
Average Humidity 73    
Maximum Humidity 100    
Minimum Humidity 46    
Precipitation  
Precipitation 0.00 in - 0.63 in (1999)
Month to date precipitation 0.48  
Year to date precipitation 19.33  
Sea Level Pressure  
Sea Level Pressure 30.12 in    
Wind  
Wind Speed 3 mph (NE)    
Max Wind Speed 9 mph    
Max Gust Speed 14 mph    
T = Trace of Precipitation, MM = Missing Value Source: NWS Daily Summary

Daily Weather History Graph

Daily Weather History Graph

Search for Another Location

Airport or City:

Trip Planner

Search our weather history database for the weather conditions in past years. The results will help you decide how hot, cold, wet, or windy it might be!

Date:

Astronomy

Aug. 11, 2013 Rise Set
Actual Time 6:36 AM CDT 9:04 PM CDT
Civil Twilight 6:01 AM CDT 9:38 PM CDT
Nautical Twilight 5:18 AM CDT 10:21 PM CDT
Astronomical Twilight 4:28 AM CDT 11:11 PM CDT
Moon 11:52 AM CDT (8/11) 10:53 PM CDT (8/11)
Length of Visible Light 15h 36m
Length of Day
14h 27m
Waxing Crescent, 22% of the Moon is Illuminated
Aug 11
Waxing Crescent
Aug 14
First Quarter
Aug 20
Full
Aug 28
Last Quarter
Sep 5
New

Hourly Weather History & Observations

Time (CDT) Temp. Dew Point Humidity Pressure Visibility Wind Dir Wind Speed Gust Speed Precip Events Conditions
12:52 AM 57.0 °F 55.9 °F 96% 30.11 in - NNE 5.8 mph - N/A   Unknown
1:52 AM 55.9 °F 55.0 °F 97% 30.11 in - North 4.6 mph - N/A   Unknown
2:52 AM 57.9 °F 55.9 °F 93% 30.10 in - NNE 4.6 mph - N/A   Unknown
3:52 AM 57.9 °F 55.9 °F 93% 30.11 in - Calm Calm - N/A   Unknown
4:52 AM 57.0 °F 55.9 °F 96% 30.12 in - NNE 3.5 mph - N/A   Unknown
5:52 AM 55.9 °F 55.0 °F 97% 30.13 in - North 3.5 mph - N/A   Unknown
6:52 AM 55.9 °F 55.0 °F 97% 30.15 in - Calm Calm - N/A   Unknown
7:52 AM 57.0 °F 55.0 °F 93% 30.15 in - NNE 3.5 mph - N/A   Unknown
8:52 AM 61.0 °F 55.9 °F 83% 30.16 in - Variable 3.5 mph - N/A   Unknown
9:52 AM 63.0 °F 55.0 °F 75% 30.16 in - East 6.9 mph - N/A   Unknown
10:52 AM 64.9 °F 55.0 °F 70% 30.16 in - Calm Calm - N/A   Unknown
11:52 AM 66.9 °F 55.0 °F 66% 30.16 in - Calm Calm - N/A   Unknown
12:52 PM 69.1 °F 53.1 °F 57% 30.15 in - ENE 8.1 mph - N/A   Unknown
1:52 PM 71.1 °F 53.1 °F 53% 30.14 in - Variable 4.6 mph - N/A   Unknown
2:52 PM 71.1 °F 52.0 °F 51% 30.13 in - Variable 4.6 mph - N/A   Unknown
3:52 PM 72.0 °F 52.0 °F 49% 30.13 in - SSE 3.5 mph - N/A   Unknown
4:52 PM 73.0 °F 51.1 °F 46% 30.11 in - Calm Calm - N/A   Unknown
5:52 PM 73.0 °F 51.1 °F 46% 30.10 in - Variable 3.5 mph - N/A   Unknown
6:52 PM 73.0 °F 52.0 °F 48% 30.09 in - SE 4.6 mph - N/A   Unknown
7:52 PM 70.0 °F 52.0 °F 53% 30.09 in - Calm Calm - N/A   Unknown
8:52 PM 66.9 °F 54.0 °F 63% 30.09 in - NE 3.5 mph - N/A   Unknown
9:52 PM 60.1 °F 52.0 °F 75% 30.10 in - NNE 4.6 mph - N/A   Unknown
10:52 PM 57.9 °F 52.0 °F 81% 30.12 in - NE 3.5 mph - N/A   Unknown
11:52 PM 59.0 °F 50.0 °F 72% 30.12 in - ENE 4.6 mph - N/A   Unknown